Location: Angwan Shehu
(11.2514°N, 7.4613°E)
Time: 00:58:42
(UTC+00:00)

Tiros 1 - Pass Details

Date: 30 April 2021
Orbit: 630 x 664 km, 48.4° (Epoch: 06 May)

Event Time Altitude Azimuth Distance (km) Brightness Sun altitude
Rises 12:29:39 0° 329° (NNW) 2,904 10.7 74.4°
Reaches altitude 10° 12:32:03 10° 335° (NNW) 1,996 10.0 73.8°
Maximum altitude 12:36:27 45° 49° (NE) 848 8.4 72.8°
Drops below altitude 10° 12:40:51 10° 122° (ESE) 2,000 9.6 71.7°
Sets 12:43:15 0° 128° (SE) 2,910 10.3 71.2°
